{"data":{"norad_id":56516,"epoch":"2026-09-20T03:50:49.290144Z","epoch_age_seconds":144130,"freshness":"FRESH","line1":"1 56516U 23065P   26263.16029271 -.00000978  00000+0 -26005-4 0  9998","line2":"2 56516  43.0020 194.0330 0001071 254.0005 106.0729 15.27581427186348","mean_motion":15.27581427,"eccentricity":0.0001071,"inclination_deg":43.002,"raan_deg":194.033,"arg_perigee_deg":254.0005,"mean_anomaly_deg":106.0729,"bstar":-2.6005e-5,"rev_number":18634,"period_min":94.266660653763,"perigee_km":482.30999051837,"apogee_km":483.77965566487,"semimajor_km":6861.1818230916,"source":"CELESTRAK","updated_at":"2026-09-21T09:00:33.471468Z"}}